Temp
45 47 47 48 50 52 52 53 54 53 55 56 56 57 58 58 58 58 58 58 57 57 56 55 54 54 53
41 43 45 48 49 49 50 51 52 52 53 54 55 56 57 57 56 56 56 56 56 56 55 54 53 53 52
38 42 44 46 47 48 48 49 50 49 51 52 54 55 56 56 55 55 54 54 53 53 53 52 52 52 51
37 38 40 44 46 44 46 48 48 49 50 50 52 53 54 55 54 52 51 52 52 52 51 50 50 50 50
35 36 38 39 40 43 43 46 47 47 46 47 48 51 54 54 53 50 51 51 51 51 50 49 49 49 48
35 35 37 39 42 42 41 41 40 45 43 45 45 47 50 53 53 51 51 50 50 50 49 49 48 47 47
36 37 37 40 39 38 39 38 38 44 41 41 42 43 48 46 49 50 50 50 49 49 49 48 47 47 46
39 39 41 41 40 39 39 40 41 44 42 37 40 40 39 42 47 49 49 49 49 48 48 47 46 46 45
40 40 40 41 41 39 36 36 35 39 40 37 37 35 35 37 42 47 48 48 48 48 48 47 46 45 44
37 38 39 39 40 40 38 34 35 34 41 36 35 34 35 35 37 43 46 48 47 47 47 46 45 43 42
35 35 36 37 38 39 39 38 34 34 41 38 34 33 33 33 34 37 40 44 45 46 47 46 45 42 40
30 30 31 32 34 36 37 38 39 37 40 39 35 35 33 32 33 33 35 39 42 42 43 44 44 42 41
28 29 31 33 34 33 34 36 37 38 41 40 38 35 34 35 33 32 32 34 39 40 38 38 37 38 37
28 30 31 31 31 32 31 33 33 34 39 40 38 37 35 35 35 33 34 32 35 37 36 36 36 37 38
27 27 28 28 29 31 30 30 29 32 34 36 35 36 36 36 32 34 33 31 33 35 34 32 34 36 37
26 26 26 26 26 28 29 29 28 31 32 33 34 32 32 33 36 33 33 32 31 32 35 32 31 33 36
24 24 23 24 24 24 25 26 26 28 30 33 32 33 32 31 32 37 33 30 30 30 32 33 32 32 33
MSLP
1027.46 1026.44 1026.50 1025.96 1024.35 1024.03 1023.41 1023.39 1022.90 1022.57 1022.49 1022.33 1022.04 1022.20 1022.16 1022.29 1022.61 1022.64 1022.86 1023.29 1023.59 1023.73 1024.06 1023.98 1024.00 1024.33 1023.88
1027.77 1027.38 1026.06 1025.69 1025.07 1023.36 1023.47 1023.27 1022.93 1022.36 1022.46 1021.89 1021.88 1021.60 1021.51 1021.51 1021.91 1022.25 1022.38 1022.72 1023.07 1023.42 1023.70 1023.74 1023.82 1024.11 1023.93
1028.42 1027.47 1026.48 1025.95 1024.37 1023.95 1024.02 1023.29 1022.83 1021.81 1021.67 1021.59 1021.67 1021.00 1020.90 1020.83 1021.33 1021.64 1021.85 1022.22 1022.60 1023.11 1023.35 1023.60 1023.67 1023.88 1023.82
1028.28 1027.44 1026.98 1025.66 1025.00 1024.35 1023.63 1023.20 1022.33 1021.65 1021.79 1021.57 1021.04 1020.13 1020.27 1020.18 1020.77 1021.01 1021.36 1021.58 1022.12 1022.68 1022.92 1023.38 1023.42 1023.65 1023.79
1028.54 1027.68 1026.74 1025.96 1025.48 1024.85 1024.24 1023.31 1022.26 1021.22 1021.28 1021.00 1020.38 1019.74 1019.77 1020.07 1020.03 1020.11 1020.78 1020.91 1021.59 1022.15 1022.52 1022.97 1022.95 1023.47 1023.57
1028.21 1027.64 1027.02 1026.53 1025.69 1025.23 1024.55 1023.30 1022.34 1021.71 1021.61 1021.12 1021.24 1020.67 1020.15 1019.39 1019.21 1019.63 1019.93 1020.36 1020.90 1021.65 1022.05 1022.42 1022.54 1023.00 1023.40
1028.09 1027.69 1027.04 1026.56 1025.99 1025.37 1024.85 1024.33 1023.71 1022.43 1021.86 1020.87 1020.47 1020.17 1019.38 1019.30 1019.42 1019.06 1019.25 1019.52 1020.23 1020.82 1021.87 1021.86 1022.24 1022.59 1023.16
1028.12 1027.81 1027.32 1026.86 1026.34 1025.80 1025.09 1024.27 1023.22 1022.05 1021.90 1020.98 1020.28 1020.19 1020.01 1019.61 1019.03 1018.66 1018.86 1019.14 1019.46 1020.30 1021.54 1021.47 1022.00 1022.34 1022.91
1027.72 1027.35 1027.00 1026.50 1026.13 1025.67 1024.93 1023.95 1022.34 1021.67 1021.36 1020.83 1020.38 1020.30 1019.89 1018.92 1018.81 1018.37 1018.85 1018.81 1018.91 1019.95 1021.13 1021.28 1021.68 1022.08 1022.73
1026.74 1026.51 1026.21 1025.81 1025.57 1025.21 1024.29 1023.49 1022.92 1021.65 1020.47 1020.82 1020.70 1020.43 1019.81 1018.93 1018.55 1018.34 1018.45 1018.62 1018.91 1019.45 1020.48 1020.99 1021.43 1021.84 1022.32
1026.30 1025.90 1025.66 1025.25 1024.85 1024.70 1024.15 1023.67 1022.92 1022.18 1021.54 1020.76 1019.83 1019.91 1019.82 1019.60 1019.15 1018.74 1018.63 1018.34 1018.91 1019.43 1019.84 1020.80 1021.09 1021.50 1021.93
1026.26 1025.62 1025.29 1024.97 1024.36 1024.16 1023.70 1023.22 1022.80 1021.81 1021.05 1020.66 1019.59 1018.96 1018.89 1019.03 1019.19 1018.67 1018.58 1018.36 1018.51 1019.11 1019.57 1020.29 1020.75 1021.49 1021.85
1025.73 1025.36 1024.98 1024.58 1024.13 1023.43 1023.09 1022.29 1021.50 1020.93 1020.00 1019.24 1018.69 1018.36 1017.97 1018.27 1018.61 1018.49 1018.55 1018.52 1018.31 1018.82 1019.46 1019.60 1019.84 1020.76 1021.50
1025.17 1024.94 1024.83 1024.23 1023.79 1023.09 1022.39 1021.65 1020.60 1019.72 1018.78 1018.02 1017.53 1017.32 1017.02 1017.31 1017.24 1017.66 1017.66 1018.05 1018.04 1018.58 1019.06 1019.52 1019.15 1020.20 1020.88
1024.46 1024.61 1024.45 1023.85 1023.12 1022.54 1022.03 1021.39 1020.56 1019.44 1018.12 1017.31 1016.75 1016.14 1015.90 1016.07 1016.46 1016.72 1017.14 1017.36 1017.54 1017.87 1018.80 1018.77 1018.81 1019.50 1020.35
1024.07 1024.12 1023.91 1023.26 1022.70 1022.16 1021.58 1020.95 1019.98 1019.15 1018.18 1017.38 1016.65 1016.08 1015.80 1015.56 1015.40 1015.70 1016.34 1016.37 1016.91 1017.42 1017.88 1018.27 1018.40 1019.05 1019.67
1023.62 1023.44 1023.44 1022.72 1022.11 1021.53 1021.10 1020.54 1019.61 1019.01 1018.13 1017.25 1016.71 1015.69 1014.79 1014.37 1014.67 1014.39 1015.11 1015.59 1016.08 1016.74 1017.15 1017.20 1017.21 1018.07 1018.74
Wind_Speed
8 11 13 12 10 8 7 8 7 12 15 18 18 20 18 15 14 14 14 13 12 10 8 6 4 3 1
12 10 10 10 10 10 8 7 8 9 14 15 19 19 18 17 16 15 14 14 13 12 11 8 6 5 2
10 9 10 10 8 7 7 7 7 10 15 18 20 17 18 17 17 17 15 14 13 12 12 10 8 7 5
9 10 10 10 7 7 8 6 9 5 9 12 15 12 17 17 17 16 15 15 15 15 14 12 10 8 7
8 10 10 10 11 8 9 10 8 4 6 5 5 7 9 15 13 18 17 16 16 16 16 15 13 11 9
7 8 12 10 10 9 10 9 8 1 2 6 3 7 8 7 10 16 18 18 18 18 17 16 15 13 11
11 9 12 12 11 11 10 10 11 10 5 12 2 9 7 5 12 17 20 20 20 19 17 18 17 15 12
11 12 12 12 11 12 14 15 12 10 5 8 0 5 3 5 11 15 18 20 21 19 18 18 17 16 14
17 19 20 21 18 11 10 11 13 11 4 4 2 3 3 3 6 13 16 19 21 20 19 19 18 17 11
11 13 13 13 17 12 10 10 10 11 5 4 3 2 4 1 3 4 7 17 19 20 20 20 20 8 7
10 9 10 10 8 9 11 11 11 12 11 6 3 2 2 3 2 1 3 6 8 11 19 20 21 13 8
9 9 9 9 9 10 13 12 13 17 17 14 6 5 4 1 3 1 2 3 6 8 8 14 18 16 12
10 9 8 9 12 12 13 14 15 16 14 16 12 5 6 5 3 3 4 4 6 8 8 9 8 7 8
10 9 10 9 10 9 10 10 11 11 11 14 14 11 7 8 8 5 5 5 8 8 8 7 7 7 8
9 9 10 11 9 7 9 10 11 12 10 10 10 10 9 7 6 8 8 5 6 8 8 8 6 8 8
8 10 11 10 10 9 9 11 11 10 11 9 8 3 1 4 11 7 7 7 6 9 9 8 7 7 7
9 9 11 11 11 9 10 9 11 11 12 10 10 9 10 10 1 17 9 6 8 8 9 9 7 9 8
Wind_Direction
317 317 306 313 327 321 320 295 287 279 267 262 254 246 236 226 206 195 196 207 213 213 215 216 218 233 92
312 304 312 314 303 321 317 307 291 282 280 280 266 254 239 223 203 200 196 199 205 205 202 203 206 202 160
300 312 317 310 316 316 288 289 291 296 290 277 264 258 247 228 204 201 196 194 193 190 193 195 199 189 172
313 318 317 323 311 315 316 312 308 297 262 259 269 275 259 238 210 197 195 190 187 186 187 188 190 183 176
309 316 323 328 324 325 305 308 306 275 306 306 299 304 274 245 224 192 195 186 185 187 188 188 180 183 178
304 301 310 310 315 319 325 320 317 70 308 303 216 262 258 244 227 203 192 186 182 187 187 186 180 180 178
305 307 314 319 334 324 316 310 302 305 332 299 9 288 282 275 241 205 196 183 182 181 188 183 180 178 179
296 297 299 315 307 315 312 302 288 283 239 268 200 267 285 252 252 224 200 185 176 178 187 181 180 178 179
299 299 301 306 305 301 295 293 296 297 239 261 240 263 257 274 242 236 208 186 174 177 187 180 179 174 182
298 302 303 299 300 288 295 287 297 300 249 228 219 191 296 339 316 252 203 189 180 176 183 181 180 165 177
301 299 301 297 294 291 291 291 288 275 293 262 201 165 221 292 266 263 221 175 178 181 176 185 186 174 175
298 298 296 294 298 293 290 285 278 277 280 277 265 193 180 223 263 209 227 193 167 175 172 180 187 188 189
291 290 287 291 296 293 286 281 276 271 270 267 246 219 202 222 222 202 150 222 193 175 174 174 172 176 185
283 290 293 287 286 286 290 293 288 285 287 265 244 229 223 222 222 217 189 194 188 188 178 175 155 179 194
278 284 289 288 277 297 304 300 291 295 302 305 247 230 229 214 216 218 199 187 191 177 176 178 172 184 195
280 282 278 285 290 286 296 285 283 287 287 301 279 231 233 255 223 210 202 187 173 183 190 189 179 186 190
270 274 281 276 287 295 289 297 293 290 283 278 292 243 240 243 186 200 202 176 165 178 195 199 192 187 183